LPNTSAT-001 (IOD-1)

Last updated on Sun Jun 21 2026 00:03:22 GMT+0000 (Coordinated Universal Time)

1 68408U 26065A 26170.91022944 .00002068 00000+0 10310-3 0 9995 2 68408 97.4012 51.3621 0016389 1.3346 358.7929 15.18549663 12670
UTC large
Height (km)
Speed (km/s)
/
Latitude / Longitude
Inclination (degrees)
Orbital Period (minutes)
Azimuth
Elevation
Range (km)
Doppler Factor

Next 0 passes for location: London (51.5072 / 0.1276)

No passes found over London.
LPNTSAT-001 (IOD-1)